Theta_e
319 319 320 320 320 320 320 320 321 321 321 321 320 320 320 320 318 319 311 322 324 341 347 333 337 337 340 339 343 343 330 321 322 324 326 332 332 337 342 339 339 341 338 337 341
319 319 319 319 319 319 319 320 320 320 320 320 320 320 321 320 317 315 331 334 339 350 341 331 330 332 334 334 338 333 331 323 329 330 332 333 334 333 334 335 336 338 339 339 341
319 318 318 317 318 318 319 319 319 319 319 319 319 319 321 321 317 314 339 338 334 349 336 333 328 330 326 331 336 333 327 329 330 335 335 332 334 336 333 333 337 334 335 337 339
317 317 317 316 317 318 318 318 318 318 318 318 319 319 321 322 308 330 335 338 337 339 335 327 324 323 319 319 331 328 332 331 331 332 334 334 337 335 336 336 343 341 338 338 337
316 316 316 316 316 317 317 317 317 317 317 318 319 320 321 313 312 335 334 335 326 334 330 322 320 320 314 318 324 327 330 330 331 332 335 338 334 334 335 342 345 343 338 336 337
316 316 316 316 317 317 317 317 316 316 316 317 319 320 317 307 322 330 326 323 322 329 327 323 320 321 317 317 320 322 331 329 329 329 335 332 333 336 338 344 342 339 336 336 336
316 316 316 316 316 317 317 315 315 316 316 317 320 321 315 310 327 329 328 322 326 329 323 323 322 318 319 316 323 325 326 328 325 326 329 335 329 330 340 342 338 337 336 336 336
316 316 315 316 316 316 315 314 316 319 319 318 320 321 313 319 328 328 329 323 326 328 324 323 321 319 319 322 319 321 325 318 325 326 330 332 321 334 339 339 335 335 335 335 336
316 315 316 317 316 315 314 314 318 322 321 319 321 320 309 327 323 327 326 320 322 324 324 322 319 316 319 315 314 318 316 316 321 328 329 329 323 335 340 337 333 334 334 335 336
317 316 317 316 316 314 314 314 319 321 321 324 323 313 319 312 321 325 325 321 318 318 316 315 314 311 314 314 307 311 316 316 318 325 327 326 328 334 337 338 335 334 334 334 335
317 317 316 314 314 312 313 320 318 317 316 312 311 313 314 319 323 320 322 319 317 315 309 312 307 305 309 312 316 316 318 316 319 326 323 324 325 334 337 336 336 336 334 334 337
317 316 315 314 313 312 316 316 314 315 309 313 312 313 317 321 314 317 323 315 313 307 311 309 305 311 312 313 312 314 315 316 319 325 323 323 325 330 336 336 334 337 336 336 337
316 315 314 313 312 313 319 315 320 318 308 310 312 312 315 318 313 314 318 316 311 307 308 306 309 313 310 311 311 314 315 315 317 317 320 317 318 323 329 334 338 340 340 337 334
316 314 313 311 307 320 315 319 320 319 304 303 306 310 315 315 309 318 319 316 312 307 308 309 312 310 309 311 314 310 317 317 315 313 310 318 308 320 325 327 333 338 340 336 336
315 313 312 308 318 316 317 321 320 316 293 304 306 317 314 310 310 312 319 316 310 309 310 306 308 308 307 311 314 310 315 315 315 312 313 313 309 314 325 324 329 334 338 337 337
314 312 312 315 319 320 321 321 316 300 292 300 307 306 307 309 308 314 314 317 316 312 312 310 313 312 311 314 316 317 314 314 314 312 304 310 310 312 315 322 324 333 337 340 339
312 310 312 321 317 321 321 316 300 296 304 300 302 305 305 304 306 307 308 306 305 303 305 309 309 312 315 312 316 315 311 302 301 302 302 311 308 314 320 323 324 325 335 339 341
309 308 316 321 324 322 319 309 295 300 300 305 303 304 301 304 305 305 305 303 308 309 306 303 300 309 314 314 311 312 311 303 297 298 302 310 306 312 323 327 330 331 334 338 340
308 322 322 324 323 323 314 298 297 301 302 302 303 299 300 303 304 305 305 304 307 309 304 303 302 309 311 316 313 311 308 313 306 307 303 308 313 318 323 326 329 331 335 337 337
321 321 319 322 323 318 309 298 302 304 304 303 298 301 298 301 301 303 304 306 305 307 310 307 300 307 307 310 312 310 315 306 307 300 298 304 307 308 317 321 326 330 334 334 338
319 314 319 323 321 313 302 302 303 306 306 303 301 300 301 300 302 301 302 304 306 307 309 309 305 303 306 305 305 308 307 310 309 307 301 300 304 317 320 322 325 327 330 332 334
317 308 319 322 309 310 304 304 299 304 306 305 303 303 301 301 301 301 301 304 307 308 305 308 306 301 302 307 309 309 309 310 304 303 306 304 303 320 322 323 328 325 323 326 329
313 311 319 318 304 303 305 302 304 303 303 302 301 302 304 301 299 302 302 304 307 307 307 307 303 299 299 303 307 305 307 309 310 309 305 302 303 320 323 323 326 326 327 324 326
312 307 311 313 311 306 303 301 299 303 303 304 301 305 303 302 305 301 301 303 306 306 306 309 303 302 296 301 305 302 304 306 307 303 305 305 307 315 319 320 323 324 325 326 327
311 306 309 304 304 305 304 302 298 299 303 305 303 302 302 300 301 301 303 303 305 304 307 307 301 302 302 302 304 304 304 303 303 306 303 307 309 313 317 318 321 323 323 322 323
311 310 310 308 306 304 301 302 300 300 302 300 300 302 304 303 303 301 303 305 304 306 306 307 302 303 300 300 300 299 302 301 302 303 306 309 307 316 316 316 317 318 318 318 320
319 317 312 303 305 304 302 302 301 303 303 304 302 302 301 302 306 307 308 307 308 306 303 304 303 301 296 301 299 295 301 302 302 304 305 305 310 313 312 311 313 315 315 315 317
Wind_Speed
12 13 13 13 13 13 12 13 13 12 11 11 10 9 9 9 10 13 15 1 9 14 8 17 18 13 14 15 16 15 3 3 8 10 14 10 8 2 12 6 3 6 16 24 25
13 12 13 14 13 13 12 12 12 13 12 10 10 9 9 8 13 19 6 6 10 14 16 19 17 16 13 13 7 7 1 2 8 3 15 18 13 13 4 8 11 12 25 26 24
15 15 14 13 14 13 13 13 12 13 13 12 9 8 9 10 13 7 21 15 9 16 20 16 15 16 17 11 12 8 3 3 7 15 12 12 14 10 9 9 14 20 26 26 24
15 14 14 14 15 14 14 13 13 12 13 12 10 8 7 13 3 11 11 14 13 21 20 17 15 16 15 13 12 6 16 4 9 5 11 15 14 9 5 3 13 19 24 25 23
14 15 15 15 14 15 15 15 14 13 12 13 10 8 8 10 10 10 12 13 17 21 20 17 17 16 14 13 9 8 4 3 7 6 12 14 13 11 8 6 13 18 24 23 21
15 14 15 17 16 16 16 16 16 14 13 11 11 8 10 14 7 10 15 17 19 22 19 16 13 16 10 9 11 14 10 4 4 11 11 14 13 10 9 11 14 20 24 22 20
16 15 15 16 17 16 15 17 18 16 13 11 10 11 11 2 3 10 14 18 20 20 17 17 9 9 11 9 11 5 8 10 7 10 13 14 12 11 12 13 16 21 22 21 19
16 17 16 16 16 16 15 17 16 18 11 10 9 14 9 5 6 10 14 17 15 17 13 11 5 13 11 5 11 14 13 13 10 12 10 5 11 16 12 14 16 20 20 18 19
16 16 16 15 15 15 15 16 17 3 11 10 10 16 9 6 14 14 10 13 12 14 11 8 11 14 12 11 14 15 15 13 13 13 14 11 12 18 15 14 15 18 19 18 17
15 16 15 14 13 12 12 14 5 13 9 11 10 10 9 14 15 13 13 13 14 12 9 12 10 14 13 15 16 18 17 17 12 10 11 18 20 17 15 16 14 16 18 16 17
16 16 14 14 11 10 12 7 9 9 12 9 12 11 9 17 17 13 11 15 16 14 15 17 13 17 20 21 20 17 20 14 12 15 12 10 13 21 16 13 14 11 14 13 17
16 15 13 12 10 10 8 9 9 9 8 17 4 6 3 18 17 16 17 15 14 16 20 14 18 16 15 16 19 15 21 14 13 9 9 17 20 16 18 21 16 15 16 17 16
15 13 11 9 11 5 11 7 7 7 9 14 12 14 12 16 18 19 19 18 16 20 21 15 15 16 13 14 13 17 16 13 15 7 16 14 15 12 12 11 24 20 17 18 16
13 12 11 9 2 3 6 3 7 3 8 14 12 10 16 16 16 18 19 15 12 18 17 16 10 17 13 15 17 18 16 10 12 15 12 15 9 20 20 16 11 15 18 16 18
13 10 9 6 12 10 6 8 8 7 8 13 15 15 14 21 16 17 19 19 15 16 11 16 11 13 16 17 16 11 15 3 14 14 11 16 8 7 21 18 16 17 17 15 23
15 11 9 7 8 9 8 9 7 10 1 9 10 13 19 19 13 21 20 13 11 14 13 16 10 13 18 16 16 5 13 9 9 14 14 11 15 13 8 13 4 16 17 17 19
14 11 7 8 8 7 8 9 10 4 4 9 13 17 20 15 15 16 20 17 13 14 13 13 9 16 13 17 14 11 15 12 12 12 11 16 17 12 11 7 2 11 19 15 20
11 10 11 8 9 8 8 13 2 13 7 7 4 18 18 17 14 19 18 18 13 15 14 12 16 12 12 17 12 17 20 12 12 13 14 18 9 11 11 8 7 7 2 19 15
12 8 8 2 4 7 11 9 8 3 6 8 12 16 11 14 9 16 12 14 8 6 9 14 11 8 5 14 6 18 21 23 12 14 14 14 20 12 12 12 11 12 7 7 15
6 9 5 6 5 9 13 3 8 7 4 8 11 6 11 11 12 17 11 5 3 5 11 6 12 14 11 8 13 14 14 20 10 13 17 17 18 15 14 13 12 13 21 19 21
8 7 6 5 7 12 4 11 6 7 8 7 7 7 10 15 16 12 8 7 3 8 9 11 5 11 7 16 16 13 14 20 13 16 13 12 11 19 14 14 14 21 17 14 15
7 5 6 6 10 4 8 5 3 5 2 3 4 12 2 4 2 3 6 8 4 8 10 4 8 13 17 5 6 12 13 16 12 19 14 4 11 14 16 16 20 17 12 14 16
3 5 4 9 4 6 6 9 10 3 5 3 3 4 5 3 2 4 6 4 4 3 4 2 10 7 7 9 9 11 10 13 18 18 14 15 14 10 15 14 16 18 16 13 13
5 2 5 3 5 4 3 4 7 3 8 7 4 5 6 6 2 5 7 3 5 5 6 5 12 10 5 9 15 19 7 12 14 11 11 8 25 19 17 16 14 15 14 14 13
5 6 5 8 8 7 4 2 3 5 4 0 2 3 4 3 3 4 8 8 5 4 3 6 10 5 4 7 8 9 14 7 16 16 9 20 20 17 16 13 12 15 12 12 13
4 2 4 5 2 4 3 9 7 5 4 6 5 2 3 2 8 8 2 3 3 2 1 4 4 9 7 1 1 6 7 4 6 3 8 23 17 15 11 12 10 10 11 11 12
2 1 6 5 1 8 9 6 5 3 6 6 4 4 7 6 7 8 7 4 4 5 3 6 5 7 12 6 5 12 13 11 9 5 9 14 18 12 11 8 8 9 10 10 11
Wind_Direction
338 337 335 334 332 331 330 328 325 324 327 328 329 324 309 300 284 232 236 346 194 166 217 188 194 201 210 225 211 257 300 317 79 135 141 170 135 69 265 200 128 126 141 137 145
334 333 333 332 329 329 327 324 322 320 321 324 323 319 305 302 264 254 180 124 142 176 198 188 187 195 202 213 233 238 204 78 114 55 147 170 147 158 236 179 146 124 121 139 151
332 332 331 329 325 326 325 321 320 318 316 317 317 312 304 283 269 244 136 155 180 202 220 196 193 197 223 225 215 216 262 95 92 97 139 161 148 155 181 170 143 133 141 150 153
329 327 326 325 322 322 318 316 314 313 312 309 308 297 303 255 254 88 144 154 191 203 222 205 199 206 230 213 220 254 235 120 91 85 100 156 145 158 182 240 136 142 150 154 159
326 325 322 320 316 317 315 313 310 306 303 302 294 286 260 219 253 105 157 165 182 207 212 200 202 210 219 210 186 228 200 160 137 141 114 144 160 113 158 144 128 143 156 159 163
323 321 316 316 316 314 313 312 307 301 293 288 279 269 244 249 52 127 176 175 181 204 202 204 204 221 271 245 208 181 242 177 178 133 150 134 137 156 111 107 135 155 159 164 163
321 317 316 316 315 313 313 310 305 293 278 265 258 249 253 295 338 162 163 186 183 202 195 207 221 202 231 215 228 242 230 220 210 164 151 153 150 128 129 140 145 159 163 166 163
318 318 319 317 315 312 311 311 295 283 248 237 235 246 274 119 220 179 180 177 189 208 208 198 224 230 257 215 187 228 222 201 173 161 135 123 183 126 141 141 151 162 166 167 165
318 318 316 315 312 310 310 300 304 300 183 198 215 235 225 137 193 185 180 171 182 195 203 142 233 222 208 220 207 211 198 222 154 188 158 142 197 142 151 151 161 168 169 172 170
319 312 308 308 308 309 302 292 353 152 188 205 272 218 214 189 169 165 181 173 177 162 165 202 220 209 220 214 202 193 213 194 167 169 198 135 125 139 154 151 173 170 178 179 176
315 308 307 312 313 309 292 195 200 180 205 242 172 264 143 163 145 178 178 180 191 191 202 198 213 208 200 211 231 206 229 197 165 150 206 140 118 137 152 159 165 190 180 184 200
316 312 314 318 310 301 246 261 35 346 248 220 247 274 317 143 167 177 186 188 196 203 217 185 219 211 228 214 239 247 217 199 126 148 252 150 160 135 162 155 170 184 197 188 197
320 316 316 314 322 249 254 15 324 308 253 166 201 204 191 193 183 173 198 210 199 210 208 211 205 228 218 205 212 234 219 186 155 170 245 159 138 154 168 181 166 176 194 188 186
324 324 319 329 282 197 221 316 288 294 263 140 189 207 179 199 203 172 201 220 205 220 202 232 219 205 205 195 218 206 236 180 192 192 203 221 175 170 162 166 190 176 183 180 179
330 328 312 265 323 249 0 294 314 240 249 150 162 145 182 206 125 168 194 220 241 221 200 210 194 200 205 218 204 236 212 251 171 218 200 183 226 172 156 170 173 179 181 174 178
327 320 310 205 221 280 290 287 242 232 143 142 140 194 172 214 157 154 195 238 254 231 201 244 211 191 211 214 192 266 158 211 211 235 243 194 228 181 118 111 140 174 182 193 164
323 312 259 309 306 330 289 249 222 290 250 150 176 181 189 186 159 171 192 195 214 203 190 218 224 196 230 202 185 183 192 186 201 214 226 208 208 81 95 94 186 199 172 197 169
311 300 211 265 284 272 256 239 304 311 28 358 220 182 199 166 176 179 187 200 219 251 183 198 183 175 207 235 175 203 210 200 189 205 201 185 150 107 102 101 66 73 209 174 211
312 210 246 357 301 268 255 326 173 21 342 295 217 206 188 171 182 183 193 199 182 265 312 182 156 109 246 239 280 196 236 236 277 198 215 116 100 118 115 109 113 99 62 113 185
273 254 77 330 267 253 256 150 80 7 293 266 249 170 183 166 216 200 178 32 129 240 288 274 128 188 169 254 245 269 222 240 242 240 208 147 158 131 139 107 88 84 52 29 18
248 246 71 320 258 253 18 59 74 59 325 340 327 170 256 186 205 193 155 81 279 291 289 305 204 164 168 206 206 211 241 237 233 258 215 151 107 116 117 117 108 68 50 42 38
271 296 35 271 256 4 45 33 272 45 32 72 33 356 289 104 306 117 141 28 320 304 239 299 281 162 201 72 318 298 232 237 242 228 269 327 95 119 130 120 97 85 76 52 44
330 38 38 280 294 102 123 98 41 74 33 64 79 23 320 325 91 92 118 69 348 345 13 1 261 148 179 183 208 240 216 271 234 264 236 254 134 146 117 104 98 109 110 88 70
293 241 104 45 12 66 114 93 113 61 78 89 110 171 189 202 174 153 139 118 72 44 317 279 264 281 12 279 192 212 219 236 273 244 252 260 136 154 129 120 113 98 84 76 73
334 54 355 15 50 52 53 12 127 105 90 97 116 210 248 170 159 147 135 149 153 125 240 303 264 272 59 6 339 178 198 204 245 259 316 128 134 134 125 107 93 102 87 79 69
347 356 116 67 313 155 133 46 79 86 334 84 92 112 210 178 332 144 181 241 105 153 279 265 208 289 210 266 267 250 200 218 289 347 263 109 106 99 117 122 103 93 88 76 62
75 114 287 187 218 51 35 41 70 68 63 49 36 118 121 56 10 20 1 12 55 287 198 266 247 222 257 175 260 244 237 210 216 212 309 163 139 140 128 117 110 97 76 63 56